Hourly Data Report for October 05, 2015

All times are specified in Local Standard Time (LST). Add 1 hour to adjust for Daylight Saving Time where and when it is observed.

HALL BEACH A
NUNAVUT

68°46'33.000" N
81°14'33.000" W
9.10 m
2402354
71293
YUX

Download Data

Hourly Data (October 2015)
Hourly Data Report for October 5, 2015
Temp Definition
°C
Dew Point Temp Definition
°C
Rel Hum Definition
%
Wind Dir Definition
10's deg

Wind Spd Definition
km/h
Visibility Definition
km
Stn Press Definition
kPa
Hmdx Definition


Wind Chill Definition


Weather Definition


TIME
00:00 Legend Double Dagger -1.6 -3.0 90 25 9 16.1 101.74   -5 LegendNANA
01:00 Legend Double Dagger -1.3 -2.7 90 25 15 16.1 101.66   -6 LegendNANA
02:00 Legend Double Dagger -1.0 -2.6 89 25 11 16.1 101.64   -5 LegendNANA
03:00 Legend Double Dagger -1.0 -1.7 95 27 13 6.4 101.60   -5 Snow
04:00 Legend Double Dagger -1.1 -1.4 98 26 11 16.1 101.57   -5 Snow
05:00 Legend Double Dagger -1.0 -1.4 97 24 11 16.1 101.53   -5 Snow
06:00 Legend Double Dagger -0.8 -1.2 97 25 11 16.1 101.50   -5 Snow
07:00 Legend Double Dagger -1.2 -1.8 96 25 13 16.1 101.48   -5 LegendNANA
08:00 Legend Double Dagger -0.4 -1.3 94 25 15 16.1 101.44   -5 LegendNANA
09:00 Legend Double Dagger 0.2 -0.8 93 25 17 16.1 101.40     LegendNANA
10:00 Legend Double Dagger 0.7 -0.5 92 26 22 16.1 101.36     Snow
11:00 Legend Double Dagger 0.8 0.1 95 26 18 16.1 101.32     Snow
12:00 Legend Double Dagger 0.9 0.2 95 26 18 16.1 101.30     Snow
13:00 Legend Double Dagger 1.1 0.1 93 24 15 16.1 101.27     Rain
14:00 Legend Double Dagger 1.2 0.2 93 25 17 16.1 101.24     LegendNANA
15:00 Legend Double Dagger 0.2 -0.8 93 22 13 16.1 101.22     LegendNANA
16:00 Legend Double Dagger -1.1 -1.8 95 22 9 16.1 101.22   -4 LegendNANA
17:00 Legend Double Dagger -1.1 -1.9 94 24 17 16.1 101.21   -6 LegendNANA
18:00 Legend Double Dagger -1.6 -2.3 95 23 9 16.1 101.19   -5 LegendNANA
19:00 Legend Double Dagger -1.3 -2.0 95 21 15 16.1 101.16   -6 LegendNANA
20:00 Legend Double Dagger -1.3 -2.3 93 23 21 16.1 101.13   -7 LegendNANA
21:00 Legend Double Dagger -2.2 -2.9 95 23 11 16.1 101.11   -6 LegendNANA
22:00 Legend Double Dagger -1.6 -2.4 94 23 11 16.1 101.07   -5 LegendNANA
23:00 Legend Double Dagger -2.8 -3.4 96 23 11 16.1 101.05   -7 LegendNANA

Notes on Data Quality.

Legend

  • E = Estimated
  • M = Missing
  • NA = Not Available
  • ‡ = Partner data that is not subject to review by the National Climate Archives
Date modified: